Time,TemperatureF,DewpointF,PressureIn,WindDirection,WindDirectionDegrees,WindSpeedMPH,WindSpeedGustMPH,Humidity,HourlyPrecipIn,Conditions,Clouds,dailyrainin,SoftwareType,DateUTC
2013-01-02 00:00:00,17.3,7.6,30.41,East,92,0.0,0.0,65,0.00,,---,0.01,VWS V14.00,2013-01-02 07:00:00,
2013-01-02 00:06:00,17.5,7.8,30.40,East,92,0.0,0.0,65,0.00,,---,0.00,VWS V14.00,2013-01-02 07:06:00,
2013-01-02 00:12:00,17.5,7.8,30.40,North,0,0.0,0.0,65,0.00,,---,0.00,VWS V14.00,2013-01-02 07:12:00,
2013-01-02 00:17:00,17.7,7.6,30.40,East,92,0.0,0.0,64,0.00,,---,0.00,VWS V14.00,2013-01-02 07:17:00,
2013-01-02 00:23:00,17.9,7.4,30.40,East,92,0.0,0.0,63,0.00,,---,0.00,VWS V14.00,2013-01-02 07:23:00,
2013-01-02 00:28:00,17.9,7.4,30.39,East,92,0.0,0.0,63,0.00,,---,0.00,VWS V14.00,2013-01-02 07:28:00,
2013-01-02 00:33:00,17.9,7.4,30.39,East,92,0.0,0.0,63,0.00,,---,0.00,VWS V14.00,2013-01-02 07:33:00,
2013-01-02 00:38:00,17.9,7.1,30.39,East,92,0.0,0.0,62,0.00,,---,0.00,VWS V14.00,2013-01-02 07:38:00,
2013-01-02 00:43:00,17.9,7.1,30.40,East,92,0.0,0.0,62,0.00,,---,0.00,VWS V14.00,2013-01-02 07:43:00,
2013-01-02 00:48:00,17.9,7.1,30.40,East,92,0.0,0.0,62,0.00,,---,0.00,VWS V14.00,2013-01-02 07:48:00,
2013-01-02 00:53:00,18.0,7.2,30.40,East,92,0.0,0.0,62,0.00,,---,0.00,VWS V14.00,2013-01-02 07:53:00,
2013-01-02 00:58:00,18.0,7.2,30.40,East,92,0.0,0.0,62,0.00,,---,0.00,VWS V14.00,2013-01-02 07:58:00,
2013-01-02 01:03:00,18.0,7.2,30.39,East,92,0.0,1.0,62,0.00,,---,0.00,VWS V14.00,2013-01-02 08:03:00,
2013-01-02 01:08:00,18.0,7.2,30.39,East,92,0.0,0.0,62,0.00,,---,0.00,VWS V14.00,2013-01-02 08:08:00,
2013-01-02 01:13:00,17.9,6.7,30.39,East,92,0.0,0.0,61,0.00,,---,0.00,VWS V14.00,2013-01-02 08:13:00,
2013-01-02 01:18:00,17.9,7.1,30.39,East,92,0.0,0.0,62,0.00,,---,0.00,VWS V14.00,2013-01-02 08:18:00,
2013-01-02 01:23:00,17.9,7.1,30.39,East,92,0.0,0.0,62,0.00,,---,0.00,VWS V14.00,2013-01-02 08:23:00,
2013-01-02 01:28:00,17.9,7.1,30.40,East,92,0.0,0.0,62,0.00,,---,0.00,VWS V14.00,2013-01-02 08:28:00,
2013-01-02 01:33:00,17.8,7.0,30.40,East,92,0.0,0.0,62,0.00,,---,0.00,VWS V14.00,2013-01-02 08:33:00,
2013-01-02 01:38:00,17.8,7.0,30.40,East,92,0.0,0.0,62,0.00,,---,0.00,VWS V14.00,2013-01-02 08:38:00,
2013-01-02 01:43:00,17.7,6.9,30.40,East,92,0.0,0.0,62,0.00,,---,0.00,VWS V14.00,2013-01-02 08:43:00,
2013-01-02 01:48:00,17.7,6.9,30.40,East,92,0.0,0.0,62,0.00,,---,0.00,VWS V14.00,2013-01-02 08:48:00,
2013-01-02 01:53:00,17.7,6.9,30.40,East,92,0.0,0.0,62,0.00,,---,0.00,VWS V14.00,2013-01-02 08:53:00,
2013-01-02 01:58:00,17.7,7.3,30.40,East,92,0.0,0.0,63,0.00,,---,0.00,VWS V14.00,2013-01-02 08:58:00,
2013-01-02 02:04:00,17.6,7.2,30.40,East,92,0.0,0.0,63,0.00,,---,0.00,VWS V14.00,2013-01-02 09:04:00,
2013-01-02 02:09:00,17.6,7.2,30.41,East,92,0.0,1.0,63,0.00,,---,0.00,VWS V14.00,2013-01-02 09:09:00,
2013-01-02 02:14:00,17.6,7.2,30.41,East,92,0.0,0.0,63,0.00,,---,0.00,VWS V14.00,2013-01-02 09:14:00,
2013-01-02 02:20:00,17.5,6.7,30.41,East,92,0.0,0.0,62,0.00,,---,0.00,VWS V14.00,2013-01-02 09:20:00,
2013-01-02 02:25:00,17.4,6.6,30.41,East,92,0.0,0.0,62,0.00,,---,0.00,VWS V14.00,2013-01-02 09:25:00,
2013-01-02 02:30:00,17.3,6.5,30.41,East,92,0.0,0.0,62,0.00,,---,0.00,VWS V14.00,2013-01-02 09:30:00,
2013-01-02 02:35:00,17.1,6.3,30.41,East,92,0.0,0.0,62,0.00,,---,0.00,VWS V14.00,2013-01-02 09:35:00,
2013-01-02 02:40:00,17.0,6.2,30.41,East,92,0.0,0.0,62,0.00,,---,0.00,VWS V14.00,2013-01-02 09:40:00,
2013-01-02 02:45:00,16.7,6.0,30.41,East,92,0.0,0.0,62,0.00,,---,0.00,VWS V14.00,2013-01-02 09:45:00,
2013-01-02 02:50:00,16.6,5.9,30.41,East,92,0.0,0.0,62,0.00,,---,0.00,VWS V14.00,2013-01-02 09:50:00,
2013-01-02 02:55:00,16.4,5.7,30.42,East,92,0.0,0.0,62,0.00,,---,0.00,VWS V14.00,2013-01-02 09:55:00,
2013-01-02 03:00:00,16.3,5.9,30.42,East,92,0.0,0.0,63,0.00,,---,0.00,VWS V14.00,2013-01-02 10:00:00,
2013-01-02 03:05:00,16.3,5.9,30.43,East,92,0.0,0.0,63,0.00,,---,0.00,VWS V14.00,2013-01-02 10:05:00,
2013-01-02 03:10:00,16.3,5.9,30.43,East,92,0.0,0.0,63,0.00,,---,0.00,VWS V14.00,2013-01-02 10:10:00,
2013-01-02 03:15:00,16.1,5.4,30.43,East,92,0.0,0.0,62,0.00,,---,0.00,VWS V14.00,2013-01-02 10:15:00,
2013-01-02 03:20:00,15.9,5.6,30.43,East,92,0.0,0.0,63,0.00,,---,0.00,VWS V14.00,2013-01-02 10:20:00,
2013-01-02 03:26:00,15.7,5.4,30.43,East,92,0.0,0.0,63,0.00,,---,0.00,VWS V14.00,2013-01-02 10:26:00,
2013-01-02 03:31:00,15.6,5.3,30.43,East,92,0.0,0.0,63,0.00,,---,0.00,VWS V14.00,2013-01-02 10:31:00,
2013-01-02 03:36:00,15.4,5.1,30.45,East,92,0.0,0.0,63,0.00,,---,0.00,VWS V14.00,2013-01-02 10:36:00,
2013-01-02 03:41:00,15.3,5.0,30.45,East,92,0.0,0.0,63,0.00,,---,0.00,VWS V14.00,2013-01-02 10:41:00,
2013-01-02 03:46:00,15.0,4.7,30.44,East,92,0.0,0.0,63,0.00,,---,0.00,VWS V14.00,2013-01-02 10:46:00,
2013-01-02 03:51:00,14.8,4.5,30.44,East,92,0.0,0.0,63,0.00,,---,0.00,VWS V14.00,2013-01-02 10:51:00,
2013-01-02 03:56:00,14.6,4.3,30.45,East,92,0.0,0.0,63,0.00,,---,0.00,VWS V14.00,2013-01-02 10:56:00,
2013-01-02 04:01:00,14.3,4.0,30.45,East,92,0.0,0.0,63,0.00,,---,0.00,VWS V14.00,2013-01-02 11:01:00,
2013-01-02 04:06:00,14.3,4.0,30.47,East,92,0.0,0.0,63,0.00,,---,0.00,VWS V14.00,2013-01-02 11:06:00,
2013-01-02 04:11:00,14.1,4.2,30.47,East,92,0.0,0.0,64,0.00,,---,0.00,VWS V14.00,2013-01-02 11:11:00,
2013-01-02 04:16:00,14.0,4.1,30.47,East,92,0.0,0.0,64,0.00,,---,0.00,VWS V14.00,2013-01-02 11:16:00,
2013-01-02 04:22:00,13.9,4.3,30.47,East,92,0.0,0.0,65,0.00,,---,0.00,VWS V14.00,2013-01-02 11:22:00,
2013-01-02 04:27:00,14.0,4.4,30.47,East,92,0.0,1.0,65,0.00,,---,0.00,VWS V14.00,2013-01-02 11:27:00,
2013-01-02 04:32:00,14.1,4.5,30.47,East,92,0.0,0.0,65,0.00,,---,0.00,VWS V14.00,2013-01-02 11:32:00,
2013-01-02 04:37:00,14.1,4.5,30.47,East,92,0.0,0.0,65,0.00,,---,0.00,VWS V14.00,2013-01-02 11:37:00,
2013-01-02 04:42:00,14.1,4.5,30.47,East,92,0.0,0.0,65,0.00,,---,0.00,VWS V14.00,2013-01-02 11:42:00,
2013-01-02 04:47:00,14.1,4.5,30.47,East,92,0.0,0.0,65,0.00,,---,0.00,VWS V14.00,2013-01-02 11:47:00,
2013-01-02 04:52:00,14.2,4.6,30.47,East,92,0.0,0.0,65,0.00,,---,0.00,VWS V14.00,2013-01-02 11:52:00,
2013-01-02 04:58:00,14.1,4.5,30.47,East,92,0.0,0.0,65,0.00,,---,0.00,VWS V14.00,2013-01-02 11:58:00,
2013-01-02 05:03:00,14.1,4.5,30.48,East,92,0.0,0.0,65,0.00,,---,0.00,VWS V14.00,2013-01-02 12:03:00,
2013-01-02 05:08:00,14.1,4.5,30.48,East,92,0.0,0.0,65,0.00,,---,0.00,VWS V14.00,2013-01-02 12:08:00,
2013-01-02 05:13:00,14.1,4.5,30.48,East,92,0.0,1.0,65,0.00,,---,0.00,VWS V14.00,2013-01-02 12:13:00,
2013-01-02 05:18:00,14.1,4.5,30.48,East,92,0.0,0.0,65,0.00,,---,0.00,VWS V14.00,2013-01-02 12:18:00,
2013-01-02 05:23:00,14.3,4.7,30.48,East,92,0.0,0.0,65,0.00,,---,0.00,VWS V14.00,2013-01-02 12:23:00,
2013-01-02 05:29:00,14.3,4.4,30.48,East,92,0.0,0.0,64,0.00,,---,0.00,VWS V14.00,2013-01-02 12:29:00,
2013-01-02 05:34:00,14.3,4.4,30.48,East,92,0.0,0.0,64,0.00,,---,0.00,VWS V14.00,2013-01-02 12:34:00,
2013-01-02 05:39:00,14.3,4.4,30.49,East,92,0.0,0.0,64,0.00,,---,0.00,VWS V14.00,2013-01-02 12:39:00,
2013-01-02 05:44:00,14.2,4.3,30.49,East,92,0.0,0.0,64,0.00,,---,0.00,VWS V14.00,2013-01-02 12:44:00,
2013-01-02 05:50:00,14.1,4.2,30.49,East,92,0.0,0.0,64,0.00,,---,0.00,VWS V14.00,2013-01-02 12:50:00,
2013-01-02 05:55:00,13.8,3.9,30.49,East,92,0.0,0.0,64,0.00,,---,0.00,VWS V14.00,2013-01-02 12:55:00,
2013-01-02 06:00:00,13.6,3.7,30.49,East,92,0.0,0.0,64,0.00,,---,0.00,VWS V14.00,2013-01-02 13:00:00,
2013-01-02 06:05:00,13.4,3.5,30.51,East,92,0.0,0.0,64,0.00,,---,0.00,VWS V14.00,2013-01-02 13:05:00,
2013-01-02 06:10:00,13.2,3.0,30.51,East,92,0.0,0.0,63,0.00,,---,0.00,VWS V14.00,2013-01-02 13:10:00,
2013-01-02 06:15:00,13.0,3.1,30.51,East,92,0.0,0.0,64,0.00,,---,0.00,VWS V14.00,2013-01-02 13:15:00,
2013-01-02 06:20:00,12.7,2.8,30.51,East,92,0.0,0.0,64,0.00,,---,0.00,VWS V14.00,2013-01-02 13:20:00,
2013-01-02 06:25:00,12.5,2.7,30.51,East,92,0.0,0.0,64,0.00,,---,0.00,VWS V14.00,2013-01-02 13:25:00,
2013-01-02 06:30:00,12.4,2.9,30.53,East,92,0.0,0.0,65,0.00,,---,0.00,VWS V14.00,2013-01-02 13:30:00,
2013-01-02 06:35:00,12.3,2.8,30.53,East,92,0.0,0.0,65,0.00,,---,0.00,VWS V14.00,2013-01-02 13:35:00,
2013-01-02 06:40:00,12.2,2.7,30.53,East,92,0.0,0.0,65,0.00,,---,0.00,VWS V14.00,2013-01-02 13:40:00,
2013-01-02 06:45:00,12.1,2.6,30.53,East,92,0.0,0.0,65,0.00,,---,0.00,VWS V14.00,2013-01-02 13:45:00,
2013-01-02 06:50:00,11.9,2.4,30.53,East,92,0.0,0.0,65,0.00,,---,0.00,VWS V14.00,2013-01-02 13:50:00,
2013-01-02 06:55:00,11.7,2.5,30.54,East,92,0.0,0.0,66,0.00,,---,0.00,VWS V14.00,2013-01-02 13:55:00,
2013-01-02 07:00:00,11.6,2.5,30.54,East,92,0.0,0.0,66,0.00,,---,0.00,VWS V14.00,2013-01-02 14:00:00,
2013-01-02 07:05:00,11.4,2.3,30.56,East,92,0.0,0.0,66,0.00,,---,0.00,VWS V14.00,2013-01-02 14:05:00,
2013-01-02 07:10:00,11.4,2.6,30.56,East,92,0.0,0.0,67,0.00,,---,0.00,VWS V14.00,2013-01-02 14:10:00,
2013-01-02 07:15:00,11.3,2.5,30.56,East,92,0.0,0.0,67,0.00,,---,0.00,VWS V14.00,2013-01-02 14:15:00,
2013-01-02 07:20:00,11.3,2.5,30.56,East,92,0.0,0.0,67,0.00,,---,0.00,VWS V14.00,2013-01-02 14:20:00,
2013-01-02 07:25:00,11.2,2.4,30.56,East,92,0.0,0.0,67,0.00,,---,0.00,VWS V14.00,2013-01-02 14:25:00,
2013-01-02 07:30:00,11.2,2.4,30.56,East,92,0.0,0.0,67,0.00,,---,0.00,VWS V14.00,2013-01-02 14:30:00,
2013-01-02 07:35:00,11.1,2.6,30.56,East,92,0.0,0.0,68,0.00,,---,0.00,VWS V14.00,2013-01-02 14:35:00,
2013-01-02 07:40:00,11.0,2.5,30.57,East,92,0.0,0.0,68,0.00,,---,0.00,VWS V14.00,2013-01-02 14:40:00,
2013-01-02 07:45:00,11.1,2.6,30.57,East,92,0.0,0.0,68,0.00,,---,0.00,VWS V14.00,2013-01-02 14:45:00,
2013-01-02 07:50:00,11.3,3.1,30.57,East,92,0.0,0.0,69,0.00,,---,0.00,VWS V14.00,2013-01-02 14:50:00,
2013-01-02 07:55:00,11.7,3.5,30.56,East,92,0.0,0.0,69,0.00,,---,0.00,VWS V14.00,2013-01-02 14:55:00,
2013-01-02 08:00:00,12.4,4.2,30.56,East,92,0.0,0.0,69,0.00,,---,0.00,VWS V14.00,2013-01-02 15:00:00,
2013-01-02 08:05:00,13.1,4.5,30.57,East,92,0.0,1.0,68,0.00,,---,0.00,VWS V14.00,2013-01-02 15:05:00,
2013-01-02 08:10:00,13.7,4.8,30.57,East,92,0.0,0.0,67,0.00,,---,0.00,VWS V14.00,2013-01-02 15:10:00,
2013-01-02 08:15:00,14.2,5.3,30.57,East,92,0.0,0.0,67,0.00,,---,0.00,VWS V14.00,2013-01-02 15:15:00,
2013-01-02 08:20:00,15.0,5.4,30.55,East,92,0.0,2.0,65,0.00,,---,0.00,VWS V14.00,2013-01-02 15:20:00,
2013-01-02 08:25:00,15.7,5.4,30.56,South,184,0.0,3.0,63,0.00,,---,0.00,VWS V14.00,2013-01-02 15:25:00,
2013-01-02 08:30:00,16.4,5.3,30.56,South,188,3.0,4.0,61,0.00,,---,0.00,VWS V14.00,2013-01-02 15:30:00,
2013-01-02 08:35:00,16.9,5.1,30.54,South,189,0.0,3.0,59,0.00,,---,0.00,VWS V14.00,2013-01-02 15:35:00,
2013-01-02 08:40:00,17.5,5.3,30.55,South,188,0.0,2.0,58,0.00,,---,0.00,VWS V14.00,2013-01-02 15:40:00,
2013-01-02 08:45:00,17.9,5.2,30.54,South,189,0.0,1.0,57,0.00,,---,0.00,VWS V14.00,2013-01-02 15:45:00,
2013-01-02 08:50:00,18.3,5.6,30.55,South,189,0.0,1.0,57,0.00,,---,0.00,VWS V14.00,2013-01-02 15:50:00,
2013-01-02 08:55:00,18.6,5.5,30.53,South,189,0.0,2.0,56,0.00,,---,0.00,VWS V14.00,2013-01-02 15:55:00,
2013-01-02 09:00:00,19.1,5.6,30.53,South,188,0.0,0.0,55,0.00,,---,0.00,VWS V14.00,2013-01-02 16:00:00,
2013-01-02 09:05:00,19.6,6.1,30.54,South,189,0.0,0.0,55,0.00,,---,0.00,VWS V14.00,2013-01-02 16:05:00,
2013-01-02 09:10:00,19.8,5.8,30.54,South,189,1.0,1.0,54,0.00,,---,0.00,VWS V14.00,2013-01-02 16:10:00,
2013-01-02 09:15:00,20.4,6.0,30.54,South,188,0.0,2.0,53,0.00,,---,0.00,VWS V14.00,2013-01-02 16:15:00,
2013-01-02 09:20:00,21.1,7.1,30.54,South,188,0.0,1.0,54,0.00,,---,0.00,VWS V14.00,2013-01-02 16:20:00,
2013-01-02 09:25:00,21.6,7.5,30.53,South,189,2.0,3.0,54,0.00,,---,0.00,VWS V14.00,2013-01-02 16:25:00,
2013-01-02 09:30:00,22.1,7.6,30.52,SSE,167,0.0,1.0,53,0.00,,---,0.00,VWS V14.00,2013-01-02 16:30:00,
2013-01-02 09:35:00,22.4,7.4,30.53,SSE,165,0.0,0.0,52,0.00,,---,0.00,VWS V14.00,2013-01-02 16:35:00,
2013-01-02 09:40:00,22.6,7.2,30.52,SSE,167,0.0,0.0,51,0.00,,---,0.00,VWS V14.00,2013-01-02 16:40:00,
2013-01-02 09:46:00,23.4,7.9,30.53,SSE,167,0.0,0.0,51,0.00,,---,0.00,VWS V14.00,2013-01-02 16:46:00,
2013-01-02 09:51:00,23.8,7.9,30.51,SSE,167,0.0,1.0,50,0.00,,---,0.00,VWS V14.00,2013-01-02 16:51:00,
2013-01-02 09:56:00,24.2,7.3,30.51,South,169,0.0,0.0,48,0.00,,---,0.00,VWS V14.00,2013-01-02 16:56:00,
2013-01-02 10:01:00,24.9,8.0,30.51,SSE,168,0.0,0.0,48,0.00,,---,0.00,VWS V14.00,2013-01-02 17:01:00,
2013-01-02 10:06:00,25.4,8.0,30.51,SSE,168,0.0,0.0,47,0.00,,---,0.00,VWS V14.00,2013-01-02 17:06:00,
2013-01-02 10:11:00,26.1,9.1,30.49,SSE,168,0.0,1.0,48,0.00,,---,0.00,VWS V14.00,2013-01-02 17:11:00,
2013-01-02 10:16:00,26.4,8.9,30.49,SSE,167,1.0,2.0,47,0.00,,---,0.00,VWS V14.00,2013-01-02 17:16:00,
2013-01-02 10:21:00,26.5,9.0,30.49,SSE,167,0.0,0.0,47,0.00,,---,0.00,VWS V14.00,2013-01-02 17:21:00,
2013-01-02 10:26:00,26.6,8.6,30.49,SSE,167,0.0,0.0,46,0.00,,---,0.00,VWS V14.00,2013-01-02 17:26:00,
2013-01-02 10:31:00,27.0,8.5,30.49,SSE,165,0.0,0.0,45,0.00,,---,0.00,VWS V14.00,2013-01-02 17:31:00,
2013-01-02 10:36:00,27.6,9.1,30.47,SSE,165,0.0,1.0,45,0.00,,---,0.00,VWS V14.00,2013-01-02 17:36:00,
2013-01-02 10:41:00,27.9,9.3,30.47,SE,133,2.0,3.0,45,0.00,,---,0.00,VWS V14.00,2013-01-02 17:41:00,
2013-01-02 10:46:00,28.1,9.0,30.47,SE,133,0.0,1.0,44,0.00,,---,0.00,VWS V14.00,2013-01-02 17:46:00,
2013-01-02 10:51:00,28.4,8.8,30.47,SE,132,0.0,0.0,43,0.00,,---,0.00,VWS V14.00,2013-01-02 17:51:00,
2013-01-02 10:56:00,28.6,8.4,30.47,SE,131,2.0,3.0,42,0.00,,---,0.00,VWS V14.00,2013-01-02 17:56:00,
2013-01-02 11:01:00,28.5,7.3,30.46,SE,131,0.0,1.0,40,0.00,,---,0.00,VWS V14.00,2013-01-02 18:01:00,
2013-01-02 11:06:00,29.0,7.7,30.45,SE,129,0.0,2.0,40,0.00,,---,0.00,VWS V14.00,2013-01-02 18:06:00,
2013-01-02 11:11:00,29.1,8.4,30.45,SE,130,0.0,2.0,41,0.00,,---,0.00,VWS V14.00,2013-01-02 18:11:00,
2013-01-02 11:16:00,29.3,7.4,30.44,SE,131,0.0,0.0,39,0.00,,---,0.00,VWS V14.00,2013-01-02 18:16:00,
2013-01-02 11:21:00,29.7,8.4,30.44,SE,131,0.0,2.0,40,0.00,,---,0.00,VWS V14.00,2013-01-02 18:21:00,
2013-01-02 11:26:00,30.0,6.9,30.44,SE,126,0.0,2.0,37,0.00,,---,0.00,VWS V14.00,2013-01-02 18:26:00,
2013-01-02 11:31:00,30.3,6.6,30.44,SE,125,2.0,2.0,36,0.00,,---,0.00,VWS V14.00,2013-01-02 18:31:00,
2013-01-02 11:36:00,30.3,7.2,30.44,ESE,119,0.0,3.0,37,0.00,,---,0.00,VWS V14.00,2013-01-02 18:36:00,
2013-01-02 11:41:00,31.3,6.8,30.42,North,360,0.0,2.0,35,0.00,,---,0.00,VWS V14.00,2013-01-02 18:41:00,
2013-01-02 11:46:00,31.5,8.2,30.42,East,101,2.0,3.0,37,0.00,,---,0.00,VWS V14.00,2013-01-02 18:46:00,
2013-01-02 11:51:00,31.7,7.8,30.42,East,101,0.0,1.0,36,0.00,,---,0.00,VWS V14.00,2013-01-02 18:51:00,
2013-01-02 11:56:00,31.9,7.4,30.42,East,89,2.0,5.0,35,0.00,,---,0.00,VWS V14.00,2013-01-02 18:56:00,
2013-01-02 12:01:00,32.2,8.3,30.41,East,92,2.0,4.0,36,0.00,,---,0.00,VWS V14.00,2013-01-02 19:01:00,
2013-01-02 12:06:00,32.3,7.7,30.40,North,360,2.0,2.0,35,0.00,,---,0.00,VWS V14.00,2013-01-02 19:06:00,
2013-01-02 12:11:00,32.3,8.4,30.40,ENE,62,0.0,1.0,36,0.00,,---,0.00,VWS V14.00,2013-01-02 19:11:00,
2013-01-02 12:16:00,33.0,8.4,30.40,East,99,9.0,9.0,35,0.00,,---,0.00,VWS V14.00,2013-01-02 19:16:00,
2013-01-02 12:21:00,32.4,9.1,30.40,East,90,0.0,2.0,37,0.00,,---,0.00,VWS V14.00,2013-01-02 19:21:00,
2013-01-02 12:26:00,32.4,9.1,30.40,ENE,65,0.0,1.0,37,0.00,,---,0.00,VWS V14.00,2013-01-02 19:26:00,
2013-01-02 12:31:00,32.5,7.9,30.40,East,90,3.0,3.0,35,0.00,,---,0.00,VWS V14.00,2013-01-02 19:31:00,
2013-01-02 12:36:00,32.4,9.6,30.40,NE,50,1.0,2.0,38,0.00,,---,0.00,VWS V14.00,2013-01-02 19:36:00,
2013-01-02 12:41:00,31.9,9.2,30.41,North,355,3.0,12.0,38,0.00,,---,0.00,VWS V14.00,2013-01-02 19:41:00,
2013-01-02 12:46:00,30.8,8.8,30.42,NW,307,5.0,13.0,39,0.00,,---,0.00,VWS V14.00,2013-01-02 19:46:00,
2013-01-02 12:51:00,30.6,9.7,30.42,North,350,6.0,11.0,41,0.00,,---,0.00,VWS V14.00,2013-01-02 19:51:00,
2013-01-02 12:56:00,30.1,9.8,30.42,NNE,13,5.0,6.0,42,0.00,,---,0.00,VWS V14.00,2013-01-02 19:56:00,
2013-01-02 13:01:00,30.2,9.9,30.41,NE,36,4.0,7.0,42,0.00,,---,0.00,VWS V14.00,2013-01-02 20:01:00,
2013-01-02 13:06:00,29.6,9.9,30.41,NNE,13,6.0,6.0,43,0.00,,---,0.00,VWS V14.00,2013-01-02 20:06:00,
2013-01-02 13:11:00,29.7,10.0,30.41,NNE,24,2.0,6.0,43,0.00,,---,0.00,VWS V14.00,2013-01-02 20:11:00,
2013-01-02 13:16:00,30.1,10.3,30.41,NNE,23,7.0,10.0,43,0.00,,---,0.00,VWS V14.00,2013-01-02 20:16:00,
2013-01-02 13:21:00,30.3,11.0,30.41,East,80,0.0,0.0,44,0.00,,---,0.00,VWS V14.00,2013-01-02 20:21:00,
2013-01-02 13:26:00,31.2,11.8,30.41,ENE,76,1.0,4.0,44,0.00,,---,0.00,VWS V14.00,2013-01-02 20:26:00,
2013-01-02 13:31:00,31.4,11.5,30.41,NNE,17,0.0,2.0,43,0.00,,---,0.00,VWS V14.00,2013-01-02 20:31:00,
2013-01-02 13:36:00,31.2,10.8,30.41,North,351,0.0,2.0,42,0.00,,---,0.00,VWS V14.00,2013-01-02 20:36:00,
2013-01-02 13:41:00,31.5,12.1,30.40,NE,52,2.0,3.0,44,0.00,,---,0.00,VWS V14.00,2013-01-02 20:41:00,
2013-01-02 13:46:00,31.9,12.0,30.40,NE,36,2.0,4.0,43,0.00,,---,0.00,VWS V14.00,2013-01-02 20:46:00,
2013-01-02 13:51:00,31.6,11.2,30.40,North,11,0.0,4.0,42,0.00,,---,0.00,VWS V14.00,2013-01-02 20:51:00,
2013-01-02 13:56:00,31.7,12.3,30.40,North,355,4.0,6.0,44,0.00,,---,0.00,VWS V14.00,2013-01-02 20:56:00,
2013-01-02 14:01:00,31.6,11.7,30.40,NE,47,3.0,5.0,43,0.00,,---,0.00,VWS V14.00,2013-01-02 21:01:00,
2013-01-02 14:06:00,31.1,11.2,30.42,NE,49,0.0,3.0,43,0.00,,---,0.00,VWS V14.00,2013-01-02 21:06:00,
2013-01-02 14:11:00,31.3,11.4,30.42,ENE,69,3.0,3.0,43,0.00,,---,0.00,VWS V14.00,2013-01-02 21:11:00,
2013-01-02 14:16:00,31.7,11.8,30.41,ENE,69,0.0,1.0,43,0.00,,---,0.00,VWS V14.00,2013-01-02 21:16:00,
2013-01-02 14:21:00,31.6,11.7,30.41,NE,41,1.0,2.0,43,0.00,,---,0.00,VWS V14.00,2013-01-02 21:21:00,
2013-01-02 14:26:00,31.5,11.6,30.41,North,10,0.0,2.0,43,0.00,,---,0.00,VWS V14.00,2013-01-02 21:26:00,
2013-01-02 14:31:00,31.6,11.2,30.41,NNE,14,3.0,7.0,42,0.00,,---,0.00,VWS V14.00,2013-01-02 21:31:00,
2013-01-02 14:36:00,31.0,10.6,30.42,NNE,25,0.0,2.0,42,0.00,,---,0.00,VWS V14.00,2013-01-02 21:36:00,
2013-01-02 14:41:00,31.0,10.6,30.42,East,94,1.0,4.0,42,0.00,,---,0.00,VWS V14.00,2013-01-02 21:41:00,
2013-01-02 14:46:00,31.7,12.3,30.41,ESE,107,0.0,1.0,44,0.00,,---,0.00,VWS V14.00,2013-01-02 21:46:00,
2013-01-02 14:51:00,30.8,11.0,30.42,NNE,13,5.0,5.0,43,0.00,,---,0.00,VWS V14.00,2013-01-02 21:51:00,
2013-01-02 14:56:00,31.0,11.7,30.42,North,11,0.0,0.0,44,0.00,,---,0.00,VWS V14.00,2013-01-02 21:56:00,
2013-01-02 15:01:00,31.2,11.3,30.44,ENE,59,1.0,2.0,43,0.00,,---,0.00,VWS V14.00,2013-01-02 22:01:00,
2013-01-02 15:06:00,31.5,11.6,30.42,NE,34,0.0,4.0,43,0.00,,---,0.00,VWS V14.00,2013-01-02 22:06:00,
2013-01-02 15:11:00,30.9,11.6,30.44,NE,34,0.0,0.0,44,0.00,,---,0.00,VWS V14.00,2013-01-02 22:11:00,
2013-01-02 15:16:00,30.5,11.2,30.44,East,98,0.0,4.0,44,0.00,,---,0.00,VWS V14.00,2013-01-02 22:16:00,
2013-01-02 15:21:00,30.3,11.5,30.44,ENE,76,0.0,3.0,45,0.00,,---,0.00,VWS V14.00,2013-01-02 22:21:00,
2013-01-02 15:27:00,30.0,11.2,30.45,East,94,0.0,0.0,45,0.00,,---,0.00,VWS V14.00,2013-01-02 22:27:00,
2013-01-02 15:32:00,29.5,10.8,30.45,East,94,0.0,0.0,45,0.00,,---,0.00,VWS V14.00,2013-01-02 22:32:00,
2013-01-02 15:37:00,29.4,11.2,30.47,East,94,1.0,1.0,46,0.00,,---,0.00,VWS V14.00,2013-01-02 22:37:00,
2013-01-02 15:43:00,29.2,11.5,30.47,East,94,0.0,0.0,47,0.00,,---,0.00,VWS V14.00,2013-01-02 22:43:00,
2013-01-02 15:48:00,28.9,11.2,30.47,East,94,0.0,0.0,47,0.00,,---,0.00,VWS V14.00,2013-01-02 22:48:00,
2013-01-02 15:53:00,28.8,11.1,30.47,East,94,0.0,2.0,47,0.00,,---,0.00,VWS V14.00,2013-01-02 22:53:00,
2013-01-02 15:58:00,28.7,11.0,30.48,East,94,0.0,0.0,47,0.00,,---,0.00,VWS V14.00,2013-01-02 22:58:00,
2013-01-02 16:03:00,28.5,10.9,30.48,East,97,1.0,3.0,47,0.00,,---,0.00,VWS V14.00,2013-01-02 23:03:00,
2013-01-02 16:08:00,28.3,10.7,30.48,East,95,1.0,2.0,47,0.00,,---,0.00,VWS V14.00,2013-01-02 23:08:00,
2013-01-02 16:13:00,28.1,11.4,30.48,ESE,118,1.0,3.0,49,0.00,,---,0.00,VWS V14.00,2013-01-02 23:13:00,
2013-01-02 16:18:00,27.9,10.8,30.48,ENE,74,1.0,4.0,48,0.00,,---,0.00,VWS V14.00,2013-01-02 23:18:00,
2013-01-02 16:23:00,27.7,11.0,30.48,ESE,115,0.0,1.0,49,0.00,,---,0.00,VWS V14.00,2013-01-02 23:23:00,
2013-01-02 16:28:00,27.5,10.9,30.48,ESE,114,0.0,1.0,49,0.00,,---,0.00,VWS V14.00,2013-01-02 23:28:00,
2013-01-02 16:33:00,27.3,10.7,30.50,ESE,114,0.0,0.0,49,0.00,,---,0.00,VWS V14.00,2013-01-02 23:33:00,
2013-01-02 16:38:00,27.0,10.4,30.50,ESE,114,1.0,1.0,49,0.00,,---,0.00,VWS V14.00,2013-01-02 23:38:00,
2013-01-02 16:43:00,26.9,10.3,30.50,ESE,114,0.0,0.0,49,0.00,,---,0.00,VWS V14.00,2013-01-02 23:43:00,
2013-01-02 16:48:00,26.7,10.1,30.51,ESE,114,0.0,0.0,49,0.00,,---,0.00,VWS V14.00,2013-01-02 23:48:00,
2013-01-02 16:53:00,26.6,10.0,30.51,ESE,114,0.0,0.0,49,0.00,,---,0.00,VWS V14.00,2013-01-02 23:53:00,
2013-01-02 16:58:00,26.3,10.2,30.51,ESE,114,0.0,1.0,50,0.00,,---,0.00,VWS V14.00,2013-01-02 23:58:00,
2013-01-02 17:03:00,26.0,10.4,30.52,ESE,114,0.0,1.0,51,0.00,,---,0.00,VWS V14.00,2013-01-03 00:03:00,
2013-01-02 17:08:00,25.8,10.6,30.52,ESE,114,0.0,0.0,52,0.00,,---,0.00,VWS V14.00,2013-01-03 00:08:00,
2013-01-02 17:14:00,25.6,10.9,30.52,ESE,114,0.0,0.0,53,0.00,,---,0.00,VWS V14.00,2013-01-03 00:14:00,
2013-01-02 17:19:00,25.5,10.8,30.52,ESE,114,0.0,0.0,53,0.00,,---,0.00,VWS V14.00,2013-01-03 00:19:00,
2013-01-02 17:24:00,25.2,10.9,30.53,ESE,114,0.0,0.0,54,0.00,,---,0.00,VWS V14.00,2013-01-03 00:24:00,
2013-01-02 17:29:00,25.2,10.9,30.53,ESE,114,0.0,0.0,54,0.00,,---,0.00,VWS V14.00,2013-01-03 00:29:00,
2013-01-02 17:34:00,25.1,11.2,30.54,ESE,114,0.0,0.0,55,0.00,,---,0.00,VWS V14.00,2013-01-03 00:34:00,
2013-01-02 17:40:00,24.9,11.0,30.54,ESE,114,0.0,0.0,55,0.00,,---,0.00,VWS V14.00,2013-01-03 00:40:00,
2013-01-02 17:45:00,24.8,10.9,30.54,ESE,114,0.0,0.0,55,0.00,,---,0.00,VWS V14.00,2013-01-03 00:45:00,
2013-01-02 17:50:00,24.5,11.1,30.54,ESE,114,0.0,0.0,56,0.00,,---,0.00,VWS V14.00,2013-01-03 00:50:00,
2013-01-02 17:55:00,24.3,10.9,30.54,ESE,114,0.0,0.0,56,0.00,,---,0.00,VWS V14.00,2013-01-03 00:55:00,
2013-01-02 18:00:00,24.3,10.9,30.55,ESE,114,0.0,0.0,56,0.00,,---,0.00,VWS V14.00,2013-01-03 01:00:00,
2013-01-02 18:05:00,24.2,10.8,30.56,ESE,114,0.0,0.0,56,0.00,,---,0.00,VWS V14.00,2013-01-03 01:05:00,
2013-01-02 18:10:00,23.9,10.5,30.56,ESE,114,0.0,0.0,56,0.00,,---,0.00,VWS V14.00,2013-01-03 01:10:00,
2013-01-02 18:15:00,23.7,10.7,30.56,ESE,114,0.0,0.0,57,0.00,,---,0.00,VWS V14.00,2013-01-03 01:15:00,
2013-01-02 18:20:00,23.4,10.4,30.58,ESE,114,0.0,0.0,57,0.00,,---,0.00,VWS V14.00,2013-01-03 01:20:00,
2013-01-02 18:25:00,23.2,10.6,30.58,ESE,114,0.0,0.0,58,0.00,,---,0.00,VWS V14.00,2013-01-03 01:25:00,
2013-01-02 18:30:00,23.1,10.5,30.58,ESE,114,0.0,0.0,58,0.00,,---,0.00,VWS V14.00,2013-01-03 01:30:00,
2013-01-02 18:35:00,23.0,10.4,30.58,ESE,114,0.0,0.0,58,0.00,,---,0.00,VWS V14.00,2013-01-03 01:35:00,
2013-01-02 18:40:00,22.9,10.3,30.58,ESE,114,0.0,0.0,58,0.00,,---,0.00,VWS V14.00,2013-01-03 01:40:00,
2013-01-02 18:45:00,22.6,10.1,30.58,ESE,114,0.0,0.0,58,0.00,,---,0.00,VWS V14.00,2013-01-03 01:45:00,
2013-01-02 18:50:00,22.5,10.4,30.58,ESE,114,0.0,0.0,59,0.00,,---,0.00,VWS V14.00,2013-01-03 01:50:00,
2013-01-02 18:55:00,22.5,10.4,30.58,ESE,114,0.0,0.0,59,0.00,,---,0.00,VWS V14.00,2013-01-03 01:55:00,
2013-01-02 19:00:00,22.4,10.3,30.58,ESE,114,0.0,3.0,59,0.00,,---,0.00,VWS V14.00,2013-01-03 02:00:00,
2013-01-02 19:05:00,22.5,10.4,30.57,SSW,205,0.0,0.0,59,0.00,,---,0.00,VWS V14.00,2013-01-03 02:05:00,
2013-01-02 19:10:00,22.3,10.2,30.59,SSW,205,0.0,0.0,59,0.00,,---,0.00,VWS V14.00,2013-01-03 02:10:00,
2013-01-02 19:15:00,22.3,10.2,30.59,SSW,205,0.0,0.0,59,0.00,,---,0.00,VWS V14.00,2013-01-03 02:15:00,
2013-01-02 19:20:00,22.2,10.1,30.59,SSW,205,0.0,0.0,59,0.00,,---,0.00,VWS V14.00,2013-01-03 02:20:00,
2013-01-02 19:25:00,21.9,9.8,30.59,SSW,205,0.0,0.0,59,0.00,,---,0.00,VWS V14.00,2013-01-03 02:25:00,
2013-01-02 19:30:00,21.7,10.0,30.59,SSW,205,0.0,0.0,60,0.00,,---,0.00,VWS V14.00,2013-01-03 02:30:00,
2013-01-02 19:35:00,22.0,10.2,30.59,SSW,205,0.0,1.0,60,0.00,,---,0.00,VWS V14.00,2013-01-03 02:35:00,
2013-01-02 19:40:00,22.3,10.5,30.59,SSW,205,0.0,2.0,60,0.00,,---,0.00,VWS V14.00,2013-01-03 02:40:00,
2013-01-02 19:45:00,22.2,10.4,30.60,SSW,205,0.0,0.0,60,0.00,,---,0.00,VWS V14.00,2013-01-03 02:45:00,
2013-01-02 19:50:00,22.2,10.4,30.60,SSW,205,0.0,0.0,60,0.00,,---,0.00,VWS V14.00,2013-01-03 02:50:00,
2013-01-02 19:55:00,22.1,10.4,30.60,SSW,205,0.0,0.0,60,0.00,,---,0.00,VWS V14.00,2013-01-03 02:55:00,
2013-01-02 20:00:00,22.0,10.2,30.60,SSW,205,0.0,1.0,60,0.00,,---,0.00,VWS V14.00,2013-01-03 03:00:00,
2013-01-02 20:05:00,21.9,10.2,30.56,SSW,205,2.0,2.0,60,0.00,,---,0.00,VWS V14.00,2013-01-03 03:05:00,
2013-01-02 20:10:00,21.9,9.8,30.56,SSW,205,0.0,3.0,59,0.00,,---,0.00,VWS V14.00,2013-01-03 03:10:00,
2013-01-02 20:15:00,22.0,9.5,30.56,South,190,0.0,1.0,58,0.00,,---,0.00,VWS V14.00,2013-01-03 03:15:00,
2013-01-02 20:20:00,21.8,9.3,30.56,South,190,0.0,1.0,58,0.00,,---,0.00,VWS V14.00,2013-01-03 03:20:00,
2013-01-02 20:25:00,21.7,9.2,30.56,SW,217,3.0,4.0,58,0.00,,---,0.00,VWS V14.00,2013-01-03 03:25:00,
2013-01-02 20:30:00,21.8,9.3,30.56,SSW,207,3.0,5.0,58,0.00,,---,0.00,VWS V14.00,2013-01-03 03:30:00,
2013-01-02 20:36:00,21.8,9.3,30.56,SSW,207,0.0,3.0,58,0.00,,---,0.00,VWS V14.00,2013-01-03 03:36:00,
2013-01-02 20:41:00,21.7,9.2,30.56,SSW,207,0.0,0.0,58,0.00,,---,0.00,VWS V14.00,2013-01-03 03:41:00,
2013-01-02 20:46:00,21.5,9.0,30.56,SSW,207,0.0,1.0,58,0.00,,---,0.00,VWS V14.00,2013-01-03 03:46:00,
2013-01-02 20:52:00,21.4,8.9,30.57,SSW,207,0.0,1.0,58,0.00,,---,0.00,VWS V14.00,2013-01-03 03:52:00,
2013-01-02 20:57:00,21.2,8.7,30.57,SSW,207,0.0,0.0,58,0.00,,---,0.00,VWS V14.00,2013-01-03 03:57:00,
2013-01-02 21:02:00,21.1,8.6,30.57,SSW,206,0.0,0.0,58,0.00,,---,0.00,VWS V14.00,2013-01-03 04:02:00,
2013-01-02 21:07:00,20.9,8.5,30.53,SSW,206,0.0,0.0,58,0.00,,---,0.00,VWS V14.00,2013-01-03 04:07:00,
2013-01-02 21:12:00,20.7,8.3,30.54,SSW,207,0.0,0.0,58,0.00,,---,0.00,VWS V14.00,2013-01-03 04:12:00,
2013-01-02 21:17:00,20.6,8.2,30.54,SSW,207,0.0,0.0,58,0.00,,---,0.00,VWS V14.00,2013-01-03 04:17:00,
2013-01-02 21:22:00,20.2,7.8,30.55,SSW,207,0.0,0.0,58,0.00,,---,0.00,VWS V14.00,2013-01-03 04:22:00,
2013-01-02 21:27:00,19.9,7.9,30.55,SSW,206,0.0,0.0,59,0.00,,---,0.00,VWS V14.00,2013-01-03 04:27:00,
2013-01-02 21:32:00,19.7,8.1,30.56,SSW,207,0.0,0.0,60,0.00,,---,0.00,VWS V14.00,2013-01-03 04:32:00,
2013-01-02 21:37:00,19.4,7.8,30.56,SSW,207,0.0,0.0,60,0.00,,---,0.00,VWS V14.00,2013-01-03 04:37:00,
2013-01-02 21:42:00,19.2,8.0,30.56,SSW,207,0.0,0.0,61,0.00,,---,0.00,VWS V14.00,2013-01-03 04:42:00,
2013-01-02 21:47:00,19.0,7.8,30.56,SSW,206,0.0,0.0,61,0.00,,---,0.00,VWS V14.00,2013-01-03 04:47:00,
2013-01-02 21:52:00,18.8,7.6,30.56,SSW,207,0.0,0.0,61,0.00,,---,0.00,VWS V14.00,2013-01-03 04:52:00,
2013-01-02 21:58:00,18.3,7.1,30.58,SSW,207,0.0,0.0,61,0.00,,---,0.00,VWS V14.00,2013-01-03 04:58:00,
2013-01-02 22:00:00,18.1,6.9,30.58,SSW,207,0.0,0.0,61,0.00,,---,0.00,VWS V14.00,2013-01-03 05:00:00,
2013-01-02 22:02:00,17.9,6.7,30.58,SSW,206,0.0,0.0,61,0.00,,---,0.00,VWS V14.00,2013-01-03 05:02:00,
2013-01-02 22:05:00,17.7,6.6,30.55,SSW,207,0.0,0.0,61,0.00,,---,0.00,VWS V14.00,2013-01-03 05:05:00,
2013-01-02 22:08:00,17.5,6.7,30.56,SSW,206,0.0,0.0,62,0.00,,---,0.00,VWS V14.00,2013-01-03 05:08:00,
2013-01-02 22:13:00,17.1,6.3,30.56,SSW,207,0.0,0.0,62,0.00,,---,0.00,VWS V14.00,2013-01-03 05:13:00,
2013-01-02 22:18:00,16.8,6.1,30.56,SSW,207,0.0,0.0,62,0.00,,---,0.00,VWS V14.00,2013-01-03 05:18:00,
2013-01-02 22:23:00,16.5,6.1,30.56,SSW,207,0.0,0.0,63,0.00,,---,0.00,VWS V14.00,2013-01-03 05:23:00,
2013-01-02 22:28:00,16.2,5.8,30.58,SSW,206,0.0,2.0,63,0.00,,---,0.00,VWS V14.00,2013-01-03 05:28:00,
2013-01-02 22:33:00,15.9,5.6,30.58,SSW,207,0.0,0.0,63,0.00,,---,0.00,VWS V14.00,2013-01-03 05:33:00,
2013-01-02 22:38:00,15.6,5.6,30.58,SSW,207,0.0,0.0,64,0.00,,---,0.00,VWS V14.00,2013-01-03 05:38:00,
2013-01-02 22:43:00,15.4,5.4,30.58,SSW,206,0.0,1.0,64,0.00,,---,0.00,VWS V14.00,2013-01-03 05:43:00,
2013-01-02 22:48:00,15.2,5.2,30.58,SSW,207,0.0,0.0,64,0.00,,---,0.00,VWS V14.00,2013-01-03 05:48:00,
2013-01-02 22:53:00,15.0,5.4,30.58,SSW,207,0.0,1.0,65,0.00,,---,0.00,VWS V14.00,2013-01-03 05:53:00,
2013-01-02 22:58:00,14.9,5.3,30.58,SSW,207,0.0,0.0,65,0.00,,---,0.00,VWS V14.00,2013-01-03 05:58:00,
2013-01-02 23:03:00,14.8,5.5,30.57,SSW,206,0.0,0.0,66,0.00,,---,0.00,VWS V14.00,2013-01-03 06:03:00,
2013-01-02 23:08:00,14.7,5.4,30.58,SSW,207,0.0,0.0,66,0.00,,---,0.00,VWS V14.00,2013-01-03 06:08:00,
2013-01-02 23:13:00,14.7,5.4,30.58,SSW,207,0.0,0.0,66,0.00,,---,0.00,VWS V14.00,2013-01-03 06:13:00,
2013-01-02 23:18:00,14.7,5.8,30.58,SSW,206,0.0,0.0,67,0.00,,---,0.00,VWS V14.00,2013-01-03 06:18:00,
2013-01-02 23:23:00,14.7,5.4,30.58,SSW,206,0.0,0.0,66,0.00,,---,0.00,VWS V14.00,2013-01-03 06:23:00,
2013-01-02 23:28:00,14.7,5.8,30.58,SSW,207,0.0,0.0,67,0.00,,---,0.00,VWS V14.00,2013-01-03 06:28:00,
2013-01-02 23:33:00,14.8,5.8,30.58,SSW,207,0.0,0.0,67,0.00,,---,0.00,VWS V14.00,2013-01-03 06:33:00,
2013-01-02 23:38:00,14.9,5.9,30.58,SSW,207,0.0,0.0,67,0.00,,---,0.00,VWS V14.00,2013-01-03 06:38:00,
2013-01-02 23:43:00,15.0,6.0,30.58,SSW,206,0.0,0.0,67,0.00,,---,0.00,VWS V14.00,2013-01-03 06:43:00,
2013-01-02 23:48:00,15.1,6.1,30.58,SSW,207,0.0,0.0,67,0.00,,---,0.00,VWS V14.00,2013-01-03 06:48:00,
2013-01-02 23:53:00,15.2,6.6,30.58,SSW,206,0.0,0.0,68,0.00,,---,0.00,VWS V14.00,2013-01-03 06:53:00,
2013-01-02 23:58:00,15.3,6.7,30.58,SSW,206,0.0,0.0,68,0.00,,---,0.00,VWS V14.00,2013-01-03 06:58:00,